Content
SEND FEEDBACK

Daily
Averages
Monthly
Summary
United States of America

ASHEVILLE, NORTH CAROLINA


Home > North America > United States > North Carolina
Elevation: 2240 feet     Latitude: 35 36N     Longitude: 082 32W

WEATHER
 
SELECT A DAY
Number of Records: 225,800;   Date Range: 1/1/95 - 7/28/14
 
SHARE

PRINT THIS DATA

[ ← Previous Day ]
WEATHER ALMANAC - SEPTEMBER 21, 2013
[ Next Day → ]
[ °C ]   °F
Weather ElementAverageHighLow
Temperature63.1 °F68 °F (10:54 am)60.8 °F (3:03 pm)
Dewpoint61.3 °F64.9 °F (11:54 am)59 °F (5:54 am)
Humidity94 %100 % (3:10 pm)87 % (10:54 am)
Barometer29.83 in29.92 in (1:54 am)29.74 in (5:54 pm)
Wind Speed6.8 mph19.6 mph (3:00 pm)
Wind Gust31.1 mph (3:00 pm)
Weather ElementAverage
Visibility6.7 mi
Wind DirectionSSW (210.5 °)

Weather ElementTotal
Precipitation4.36 in
Heating Degree Days0.6 (Base 65)
Growing Degree Days14.4 (Base 50)
Averaged from 56 records on September 21, 2013
WEATHER CONDITIONS BREAKOUT
WIND DIRECTION BREAKOUT
WEATHER BY HOUR - SEPTEMBER 21, 2013
[ °C ]   °F
Local TimeTemperatureDewpointHumidityBarometerVisibilityWind DirectionWind SpeedGust SpeedPrecipitationEventsConditions
1:54 AM64.9 °F62.1 °F90 %29.92 in9.0 miESE (110°)3.5 mphClear
2:54 AM62.1 °F61.0 °F96 %29.91 in8.0 miCalmClear
3:54 AM62.1 °F61.0 °F96 %29.88 in8.0 miCalmClear
4:54 AM61.0 °F60.1 °F97 %29.85 in4.0 miCalmClear
5:54 AM61.0 °F59.0 °F93 %29.84 in6.0 miSSE (160°)3.5 mphClear
6:19 AM62.6 °F60.8 °F94 %29.91 in6.0 miCalmMostly Cloudy
6:46 AM62.6 °F60.8 °F94 %29.91 in7.0 miCalmOvercast
6:54 AM62.1 °F61.0 °F96 %29.84 in8.0 miESE (120°)3.5 mphOvercast
7:37 AM62.6 °F60.8 °F94 %29.92 in8.0 miSE (130°)3.5 mphOvercast
7:54 AM63.0 °F61.0 °F93 %29.85 in7.0 miCalmOvercast
8:41 AM64.4 °F62.6 °F94 %29.91 in10.0 miSouth (170°)8.1 mph0.00 inRainLight Rain
8:54 AM64.9 °F63.0 °F93 %29.85 in10.0 miSouth (170°)6.9 mph0.01 inRainLight Rain
9:04 AM66.2 °F62.6 °F88 %29.91 in10.0 miSSE (160°)5.8 mph0.00 inOvercast
9:32 AM66.2 °F62.6 °F88 %29.91 in10.0 miSSE (160°)6.9 mph0.00 inRainLight Rain
9:54 AM66.9 °F64.0 °F90 %29.84 in10.0 miSSE (160°)9.2 mph0.00 inOvercast
10:22 AM66.2 °F64.4 °F94 %29.90 in10.0 miSouth (170°)5.8 mph0.00 inOvercast
10:54 AM68.0 °F64.0 °F87 %29.82 in10.0 miSSW (210°)3.5 mph0.00 inOvercast
11:54 AM68.0 °F64.9 °F90 %29.81 in10.0 miSouth (170°)6.9 mph0.00 inRainLight Rain
12:54 PM68.0 °F64.0 °F87 %29.80 in10.0 miSouth (180°)10.4 mph19.6 mph0.01 inRainLight Rain
1:42 PM68.0 °F64.4 °F88 %29.85 in10.0 miSSW (200°)6.9 mph0.02 inRainLight Rain
1:54 PM68.0 °F64.9 °F90 %29.78 in10.0 miSSW (200°)6.9 mph0.02 inRainLight Rain
2:02 PM68.0 °F64.4 °F88 %29.84 in10.0 miSSW (200°)5.8 mph0.00 inRainLight Rain
2:10 PM68.0 °F64.4 °F88 %29.83 in10.0 miSouth (190°)8.1 mph0.00 inRainLight Rain
2:29 PM66.2 °F64.4 °F94 %29.83 in5.0 miWest (270°)3.5 mph0.02 inRainRain
2:35 PM66.2 °F64.4 °F94 %29.84 in4.0 miNNW (340°)11.5 mph0.03 inRainRain
2:47 PM62.6 °F59.0 °F88 %29.83 in2.5 miNorth (350°)13.8 mph20.7 mph0.08 inRainHeavy Rain
2:54 PM62.1 °F59.0 °F90 %29.78 in3.0 miNorth (350°)10.4 mph20.7 mph0.10 inRainHeavy Rain
3:00 PM62.6 °F59.0 °F88 %29.83 in2.5 miNNW (340°)19.6 mph31.1 mph0.04 inRainHeavy Rain
3:03 PM60.8 °F59.0 °F94 %29.84 in2.5 miNorth (350°)18.4 mph31.1 mph0.06 inRainHeavy Rain
3:10 PM60.8 °F60.8 °F100 %29.83 in1.2 miNorth (350°)16.1 mph0.16 inRainHeavy Rain
3:22 PM60.8 °F60.8 °F100 %29.83 in1.5 miNorth (350°)10.4 mph19.6 mph0.32 inRainHeavy Rain
3:46 PM60.8 °F60.8 °F100 %29.84 in1.5 miNNW (330°)10.4 mph0.50 inRainHeavy Rain
3:54 PM61.0 °F60.1 °F97 %29.78 in1.5 miNorth (360°)9.2 mph0.56 inRainHeavy Rain
4:01 PM60.8 °F60.8 °F100 %29.83 in2.0 miNNW (340°)9.2 mph0.05 inRainHeavy Rain
4:09 PM60.8 °F60.8 °F100 %29.83 in1.2 miNW (320°)6.9 mph0.11 inRainHeavy Rain
4:19 PM60.8 °F60.8 °F100 %29.83 in1.5 miCalm0.21 inRainHeavy Rain
4:31 PM60.8 °F60.8 °F100 %29.83 in1.5 miWNW (300°)3.5 mph0.29 inRainHeavy Rain
4:38 PM60.8 °F60.8 °F100 %29.82 in1.2 miNNE (20°)3.5 mph0.36 inRainHeavy Rain
4:42 PM60.8 °F60.8 °F100 %29.82 in2.0 miNorth (360°)3.5 mph0.38 inRainRain
4:54 PM61.0 °F60.1 °F97 %29.77 in1.5 miCalm0.47 inRainHeavy Rain
5:07 PM60.8 °F60.8 °F100 %29.81 in2.5 miVariable3.5 mph0.09 inRainHeavy Rain
5:21 PM60.8 °F60.8 °F100 %29.80 in3.0 miENE (60°)4.6 mph0.14 inRainRain
5:54 PM62.1 °F60.1 °F93 %29.74 in6.0 miNNW (340°)5.8 mph0.19 inRainRain
6:03 PM62.6 °F60.8 °F94 %29.80 in10.0 miNW (320°)8.1 mph0.01 inRainLight Rain
6:11 PM62.6 °F60.8 °F94 %29.79 in8.0 miNNW (330°)10.4 mph0.02 inRainLight Rain
6:15 PM62.6 °F60.8 °F94 %29.79 in8.0 miCalm0.02 inRainLight Rain
6:29 PM62.6 °F60.8 °F94 %29.79 in10.0 miVariable5.8 mph0.03 inRainLight Rain
6:37 PM62.6 °F60.8 °F94 %29.80 in10.0 miNNW (330°)10.4 mph0.03 inRainLight Rain
6:54 PM62.1 °F60.1 °F93 %29.75 in10.0 miNorth (350°)9.2 mph0.03 inRainLight Rain
7:47 PM62.6 °F60.8 °F94 %29.79 in10.0 miNorth (360°)9.2 mphOvercast
7:54 PM62.1 °F60.1 °F93 %29.74 in10.0 miNorth (350°)9.2 mphOvercast
8:21 PM60.8 °F60.8 °F100 %29.79 in10.0 miNorth (350°)11.5 mphScattered Clouds
8:54 PM62.1 °F59.0 °F90 %29.74 in10.0 miNorth (350°)13.8 mph20.7 mphScattered Clouds
9:54 PM61.0 °F59.0 °F93 %29.75 in10.0 miNorth (350°)8.1 mphMostly Cloudy
10:54 PM61.0 °F59.0 °F93 %29.76 in10.0 miNorth (350°)9.2 mphScattered Clouds
11:54 PM61.0 °F59.0 °F93 %29.77 in10.0 miNorth (360°)6.9 mphMostly Cloudy
Hourly data recorded from KAVL, located miles away from Asheville, North Carolina







STORIES FROM OUR PARTNERS